W1JCN Weather Reports


Display with metric or nautical units.
time (UTC)temp
F
wind
direction
speed
MPH
gust
MPH
rain 1hr
in
rain 24hr
in
rain mn
in
humidity
%
barometer
mb
20260502221737 47 0 0.0 0.0 0.00 0.13 0.13 87 1006.9
20260502220837 47 0 0.0 0.0 0.00 0.13 0.13 86 1006.8
20260502215937 47 0 0.0 0.0 0.00 0.13 0.13 86 1006.8
20260502215037 47 0 0.0 0.0 0.00 0.13 0.13 85 1006.8
20260502213237 47 0 0.0 0.0 0.00 0.13 0.13 86 1006.7
20260502212337 47 0 0.0 0.0 0.00 0.13 0.13 86 1006.8
20260502211437 47 0 0.0 0.0 0.00 0.13 0.13 86 1006.8
20260502210537 47 0 0.0 0.0 0.00 0.13 0.13 85 1006.7
20260502204737 47 0 0.0 0.0 0.00 0.13 0.13 87 1006.8
20260502203837 47 308 0.0 1.0 0.01 0.13 0.13 88 1006.7
20260502202937 48 309 0.0 1.0 0.01 0.13 0.13 90 1006.7
20260502202037 47 322 0.0 3.0 0.01 0.13 0.13 89 1006.7
20260502201137 47 324 0.0 3.0 0.01 0.13 0.13 90 1006.9
20260502200237 47 0 0.0 0.0 0.02 0.13 0.13 90 1006.9
20260502195337 46 0 0.0 0.0 0.02 0.13 0.13 89 1007.0
20260502194437 46 314 0.0 2.0 0.02 0.13 0.13 87 1007.2
20260502193537 47 315 0.0 1.0 0.01 0.12 0.12 86 1007.3
20260502191737 48 0 0.0 0.0 0.01 0.12 0.12 87 1007.3
20260502190837 48 319 0.0 1.0 0.00 0.11 0.11 87 1007.1
20260502185936 48 323 0.0 1.0 0.00 0.11 0.11 88 1007.2
20260502185036 48 310 0.0 4.0 0.00 0.11 0.11 85 1007.2
20260502184137 48 319 0.0 3.0 0.00 0.11 0.11 81 1007.2
20260502183237 49 317 0.0 1.0 0.00 0.11 0.11 84 1007.3
20260502182337 49 0 0.0 0.0 0.00 0.11 0.11 82 1007.3
20260502181437 49 0 0.0 0.0 0.00 0.11 0.11 85 1007.3
20260502180536 48 0 0.0 0.0 0.00 0.11 0.11 84 1007.3
20260502170236 45 325 0.0 1.0 0.00 0.11 0.11 88 1007.6
20260502162636 48 0 0.0 0.0 0.00 0.11 0.11 88 1007.7
20260502161736 47 0 0.0 0.0 0.00 0.11 0.11 89 1007.6
20260502160836 46 0 0.0 0.0 0.00 0.11 0.11 91 1007.9
20260502151436 45 0 0.0 0.0 0.00 0.11 0.11 91 1008.2
20260502150536 45 0 0.0 0.0 0.00 0.11 0.11 91 1008.2
20260502123236 41 0 0.0 0.0 0.00 0.11 0.11 94 1008.7
20260502122336 41 0 0.0 0.0 0.00 0.11 0.11 94 1008.7
20260502121436 41 0 0.0 0.0 0.00 0.11 0.11 95 1008.6
20260502120536 41 0 0.0 0.0 0.00 0.11 0.11 94 1008.4
20260502115636 41 0 0.0 0.0 0.00 0.11 0.11 94 1008.6
20260502113836 41 0 0.0 0.0 0.00 0.11 0.11 94 1008.4
20260502112936 40 0 0.0 0.0 0.01 0.11 0.11 94 1008.6
20260502112036 40 0 0.0 0.0 0.01 0.11 0.11 94 1008.6
20260502111136 40 0 0.0 0.0 0.01 0.11 0.11 94 1008.6
20260502104436 40 0 0.0 0.0 0.01 0.11 0.11 94 1008.2
20260502103536 40 0 0.0 0.0 0.00 0.10 0.10 94 1008.0
20260502101737 40 0 0.0 0.0 0.00 0.10 0.10 94 1008.1
20260502100835 39 0 0.0 0.0 0.00 0.10 0.10 94 1008.2
20260502091435 40 0 0.0 0.0 0.04 0.10 0.10 93 1008.4
20260502090535 40 0 0.0 0.0 0.04 0.10 0.10 93 1008.2
20260502070835 40 0 0.0 0.0 0.01 0.05 0.05 92 1008.6
20260502065935 40 0 0.0 0.0 0.02 0.05 0.05 91 1008.6
20260502065035 40 0 0.0 0.0 0.04 0.05 0.05 91 1008.5
20260502064135 40 0 0.0 0.0 0.04 0.05 0.05 91 1008.6
20260502063235 40 0 0.0 0.0 0.04 0.05 0.05 91 1009.0
20260502062335 41 0 0.0 0.0 0.04 0.05 0.05 90 1009.1
20260502061435 41 0 0.0 0.0 0.05 0.05 0.05 90 1009.3
20260502060535 41 0 0.0 0.0 0.03 0.03 0.03 90 1009.6
20260502055635 42 0 0.0 0.0 0.02 0.02 0.03 89 1009.6
20260502054735 42 0 0.0 0.0 0.01 0.01 0.01 88 1009.5
20260502053835 42 0 0.0 0.0 0.01 0.01 0.01 87 1009.4
20260502052935 42 0 0.0 0.0 0.01 0.01 0.01 88 1009.3
20260502051135 42 0 0.0 0.0 0.00 0.00 0.00 88 1008.9
20260502050235 42 0 0.0 0.0 0.00 0.00 0.00 88 1008.9
20260502045335 42 0 0.0 0.0 0.00 0.00 0.00 87 1009.1
20260502044435 41 0 0.0 0.0 0.00 0.00 0.00 86 1008.9
20260502043535 41 0 0.0 0.0 0.00 0.00 0.00 84 1008.8
20260502042635 41 0 0.0 0.0 0.00 0.00 0.00 84 1008.7
20260502041735 40 0 0.0 0.0 0.00 0.00 0.00 83 1008.6
20260502040835 40 0 0.0 0.0 0.00 0.00 0.00 83 1008.6
20260502035935 40 0 0.0 0.0 0.00 0.00 0.00 84 1008.5
20260502035035 40 0 0.0 0.0 0.00 0.01 0.00 83 1008.4
20260502034135 40 0 0.0 0.0 0.00 0.01 0.00 83 1008.4
20260502033235 40 0 0.0 0.0 0.00 0.01 0.00 83 1008.4
20260502032335 40 0 0.0 0.0 0.00 0.01 0.00 83 1008.4
20260502031435 39 0 0.0 0.0 0.00 0.01 0.00 83 1008.4
20260502030535 39 0 0.0 0.0 0.00 0.01 0.00 83 1008.3
20260502025635 39 0 0.0 0.0 0.00 0.01 0.00 83 1008.4
20260502024735 39 0 0.0 0.0 0.00 0.01 0.00 83 1008.4
20260502023835 39 0 0.0 0.0 0.00 0.02 0.00 83 1008.5
20260502022935 39 0 0.0 0.0 0.00 0.03 0.00 83 1008.3
20260502022035 39 0 0.0 0.0 0.00 0.04 0.00 82 1008.3
20260502021135 40 0 0.0 0.0 0.00 0.05 0.00 82 1008.4
20260502020234 40 0 0.0 0.0 0.00 0.05 0.00 82 1008.5
20260502015334 40 0 0.0 0.0 0.00 0.06 0.00 81 1008.5
20260502014435 40 0 0.0 0.0 0.00 0.07 0.00 80 1008.5
20260502013535 40 0 0.0 0.0 0.00 0.08 0.00 80 1008.5
20260502012635 41 338 0.0 1.0 0.00 0.08 0.00 80 1008.5
20260502011734 41 0 0.0 0.0 0.00 0.08 0.00 79 1008.4
20260502010834 42 0 0.0 0.0 0.00 0.08 0.00 79 1008.4
20260502005935 42 0 0.0 0.0 0.00 0.08 0.00 78 1008.2
20260502005034 43 0 0.0 0.0 0.00 0.09 0.00 78 1008.1
20260502001434 45 0 0.0 0.0 0.00 0.11 0.00 74 1007.9
20260502000534 46 0 0.0 0.0 0.00 0.11 0.00 72 1007.7
20260501235634 47 0 0.0 0.0 0.00 0.11 0.00 71 1007.6
20260501234734 48 0 0.0 0.0 0.00 0.12 0.00 68 1007.5
20260501233834 49 0 0.0 0.0 0.00 0.12 0.00 64 1007.4
20260501232934 50 0 0.0 0.0 0.00 0.12 0.00 63 1007.4
20260501232034 50 0 0.0 0.0 0.00 0.12 0.00 60 1007.2
20260501231134 51 0 0.0 0.0 0.00 0.12 0.00 60 1007.0
20260501230235 51 0 0.0 0.0 0.00 0.12 0.00 56 1006.9
20260501225334 52 0 0.0 0.0 0.00 0.12 0.00 53 1006.8
20260501224434 52 0 0.0 0.0 0.00 0.13 0.00 50 1006.8
20260501223534 53 0 0.0 0.0 0.00 0.13 0.00 43 1006.7
20260501222634 53 359 0.0 5.0 0.00 0.13 0.00 40 1006.7